Welcome to the New NWS' Forecast!
Most changes are behind the scenes, but click here for differences you might notice.

Regional Weather Roundup (RWR)

Issued by National Weather Service (NWS)

                            
417 
ASUS43 KLMK 150502
RWRKY 
KENTUCKY REGIONAL WEATHER ROUNDUP
NATIONAL WEATHER SERVICE LOUISVILLE KY
100 AM EDT WED AUG 15 2018

NOTE "FAIR" INDICATES FEW OR NO CLOUDS BELOW 12,000 FEET
WITH NO SIGNIFICANT WEATHER AND/OR OBSTRUCTIONS TO VISIBILITY.

KYZ001>023-026-027-061>063-070>075-150600-
WESTERN AND SOUTH CENTRAL KENTUCKY
  
CITY           SKY/WX    TMP DP  RH WIND       PRES   REMARKS
PADUCAH        MOCLDY    71  68  90 CALM      30.00R                  
HENDERSON      CLOUDY    71  66  84 CALM      30.01F                  
OWENSBORO      MOCLDY    76  66  71 W3        30.02S                  
HOPKINSVILLE   CLOUDY    75  71  87 CALM      30.03R                  
BOWLING GREEN  FAIR      77  68  73 CALM      30.04R                  
GLASGOW        NOT AVBL                                               
$$

KYZ024-025-028>034-038-045-046-053-150600-
NORTH CENTRAL KENTUCKY
  
CITY           SKY/WX    TMP DP  RH WIND       PRES   REMARKS
LOUISVILLE/SDF CLOUDY    78  69  73 SE6       30.01S                  
LOUISVILLE/LOU FAIR      76  69  79 CALM      30.01F                  
FORT KNOX      FAIR      73  67  82 CALM      30.03F                  
$$

KYZ035>037-039>044-047>052-055>060-089>105-150600-
NORTHEAST KENTUCKY
  
CITY           SKY/WX    TMP DP  RH WIND       PRES   REMARKS
LEXINGTON      FAIR      72  64  76 SE6       30.05S                  
COVINGTON      MOCLDY    72  68  87 S3        30.03F                  
FRANKFORT      FAIR      71  67  87 CALM      30.03S                  
$$

KYZ054-064>069-076>088-106>120-150600-
SOUTHEAST KENTUCKY
  
CITY           SKY/WX    TMP DP  RH WIND       PRES   REMARKS
JACKSON        FAIR      70  66  87 CALM      30.08S                  
LONDON         FAIR      68  67  96 CALM      30.08S                  
SOMERSET       NOT AVBL                                               
MIDDLESBORO    FAIR      64  64 100 CALM      30.11S                  
MONTICELLO     MOCLDY    67  66  97 W10       30.09R                  
$$